[[{"header":{"parameterUnit":"m.s-1","parameterCategory":1,"la1":30.2991,"la2":30.254,"lo1":-89.0895,"lo2":-89.0444,"dy":0.0017,"dx":0.0017,"nx":28,"ny":28,"refTime":"2024-08-10T21:00:00:Z","depth":0,"parameterNumber":2,"parameterNumberName":"U-component_of_WINDS"},"data":[0,0,0,0,0,0,0,0,0,0,0,0,0,0,0,0,0,0,0,0,0,0,0,0,0,0,0,0,0,0,0,0,0,0,0,0,0,0,0,0,0,0,0,0,0,0,0,0,0,0,0,0,0,0,0,0,0,0,0.8071,0.8072,0,0.8171,0.8173,0.8174,0.8213,0.8212,0.8212,0.8212,0.8315,0.8318,0.8321,0,0,0,0,0,0,0,0,0,0,0,0,0,0.7913,0.7916,0.8071,0.8072,0.8074,0.8171,0.8173,0.8174,0.8213,0.8212,0.8212,0.8212,0.8314,0.8318,0.8321,0,0,0,0,0,0,0,0,0,0,0,0,0,0.7994,0.7917,0.8071,0.8105,0.8109,0.8171,0.8173,0.8174,0.8213,0.8212,0.8212,0.8212,0.8313,0.8317,0.8322,0.8358,0,0,0.8336,0.8337,0,0,0,0,0,0,0,0,0.799,0.8,0.8099,0.8103,0.8107,0.8179,0.8155,0.8236,0.8213,0.8173,0.8212,0.8211,0.827,0.8278,0.8298,0.8363,0.8367,0.8336,0.8339,0.8341,0.8342,0,0,0,0,0,0,0,0.7984,0.7996,0.8111,0.81,0.8105,0.8115,0.8126,0.817,0.8223,0.8177,0.818,0.8191,0.8273,0.8293,0.8301,0.8369,0.8336,0.834,0.8343,0.8344,0.8467,0.8467,0,0,0,0,0,0,0.7973,0.7991,0.8108,0.8114,0.8046,0.8118,0.813,0.8156,0.8223,0.8232,0.8191,0.8193,0.8286,0.8295,0.8304,0.835,0.8341,0.8345,0.8347,0.8466,0.8467,0.8467,0,0,0,0,0,0,0.7969,0.7983,0.8104,0.8053,0.8069,0.8121,0.815,0.8159,0.818,0.8234,0.8243,0.8203,0.8286,0.8298,0.8344,0.8354,0.8347,0.8351,0.8466,0.8466,0.8467,0.8443,0,0,0,0,0,0,0.7965,0.7981,0.7996,0.8053,0.8072,0.8141,0.8151,0.8161,0.8187,0.819,0.8247,0.8256,0.8287,0.8337,0.8348,0.836,0.8354,0.8465,0.8466,0.8467,0.8443,0.8442,0.8442,0,0,0,0,0,0.7959,0.7985,0.7996,0.801,0.8091,0.8142,0.8153,0.8187,0.8188,0.8203,0.8237,0.8254,0.8351,0.8341,0.8355,0.8368,0.8464,0.8466,0.8467,0.8443,0.8442,0.8442,0,0,0,0,0,0,0.7928,0.7993,0.8006,0.8052,0.8091,0.8148,0.8168,0.8186,0.8225,0.8226,0.8267,0.828,0.8322,0.835,0.8337,0.8406,0.8409,0.8413,0.8386,0.8386,0.8386,0.8379,0.8358,0,0,0,0,0,0.7926,0.7962,0.8018,0.8053,0.8071,0.8116,0.814,0.8163,0.8205,0.8221,0.8259,0.83,0.8339,0.8364,0.8404,0.8447,0.846,0.8463,0.8462,0.8462,0.8465,0.8489,0.8491,0.8472,0.8471,0.8471,0,0,0.7923,0.7964,0.7984,0.8047,0.808,0.8116,0.813,0.8168,0.8195,0.8227,0.8273,0.8302,0.8349,0.8394,0.8415,0.8418,0.8473,0.8463,0.8463,0.8466,0.849,0.8492,0.8493,0.8472,0.8472,0.8472,0,0,0.7937,0.7971,0.8003,0.8036,0.8085,0.8115,0.8122,0.8177,0.8197,0.8244,0.8268,0.8301,0.8369,0.8401,0.8427,0.8451,0.8468,0.8462,0.8461,0.8484,0.8486,0.8487,0.8495,0.8498,0.8465,0.8465,0.8465,0,0.7927,0.7982,0.8018,0.8054,0.8081,0.8112,0.8145,0.8174,0.8234,0.8252,0.8254,0.8339,0.8373,0.8425,0.843,0.845,0.846,0.8456,0.8483,0.8485,0.8487,0.8495,0.8498,0.8464,0.8464,0.8464,0.8464,0,0.7968,0.8006,0.8026,0.8082,0.8111,0.8146,0.8186,0.8211,0.8231,0.826,0.8307,0.8349,0.8397,0.8411,0.8431,0.8465,0.8465,0.8475,0.8479,0.8487,0.8495,0.8499,0.8463,0.8463,0.8463,0.8464,0,0,0.7965,0.804,0.8046,0.8072,0.8128,0.8158,0.8194,0.824,0.8261,0.8301,0.8331,0.8387,0.8395,0.8424,0.8448,0.8468,0.8484,0.8475,0.8477,0.8475,0.8524,0.8516,0.8519,0.8496,0.8496,0.8497,0.852,0,0.7985,0.805,0.8082,0.8133,0.8168,0.8197,0.8228,0.8266,0.8293,0.8327,0.8358,0.8397,0.8405,0.8423,0.8444,0.8477,0.8494,0.8476,0.8524,0.8525,0.8511,0.8524,0.8516,0.8536,0.8523,0.8524,0.8524,0,0.8018,0.8057,0.8111,0.8162,0.8178,0.8205,0.825,0.8282,0.8325,0.8344,0.8375,0.8398,0.8436,0.8437,0.849,0.8477,0.8498,0.8518,0.8519,0.8525,0.8525,0.853,0.8543,0.8545,0.853,0.8529,0.8529,0,0.8009,0.8075,0.8116,0.8137,0.8198,0.8217,0.8243,0.8286,0.8311,0.835,0.8367,0.841,0.8434,0.8466,0.8501,0.8498,0.855,0.8554,0.8566,0.8565,0.8576,0.8575,0.8592,0.859,0.859,0.859,0.859,0,0.8029,0.806,0.8113,0.8138,0.8174,0.8211,0.8246,0.8274,0.8312,0.8343,0.8371,0.8399,0.8442,0.8476,0.8503,0.8542,0.8553,0.8569,0.8575,0.8566,0.8564,0.8581,0.858,0.8591,0.859,0.859,0.859,0,0.8025,0.8062,0.8108,0.8162,0.8176,0.8201,0.8247,0.8272,0.8301,0.8339,0.835,0.8396,0.8437,0.8474,0.8528,0.8546,0.8586,0.8595,0.8571,0.8575,0.8585,0.8584,0.8614,0.862,0.8613,0.8613,0.8613,0,0.8035,0.806,0.8117,0.8139,0.8165,0.8201,0.8227,0.8264,0.829,0.834,0.8359,0.8402,0.8438,0.8502,0.854,0.8581,0.8591,0.8599,0.8598,0.8587,0.8591,0.8589,0.8591,0.8599,0.8598,0.8598,0.8598,0,0.8048,0.8065,0.8102,0.8144,0.8175,0.821,0.8246,0.8263,0.8307,0.8335,0.8376,0.8404,0.846,0.8502,0.8547,0.8574,0.8593,0.8598,0.8603,0.8594,0.8579,0.8587,0.857,0.8597,0.8598,0.8598,0.8598,0.8598,0.8052,0.8075,0.8118,0.8158,0.8189,0.8222,0.8248,0.828,0.8315,0.8363,0.8383,0.8425,0.8467,0.853,0.8557,0.859,0.8594,0.8602,0.8604,0.8605,0.8603,0.8574,0.8599,0.8599,0.8599,0.8599,0.8599,0,0.8066,0.8095,0.8131,0.8181,0.8212,0.8227,0.8267,0.8292,0.8329,0.8366,0.8401,0.8449,0.849,0.853,0.8573,0.8592,0.8602,0.8602,0.8601,0.8607,0.8597,0.8588,0.8593,0.8593,0.8593,0.8593,0.8593,0.8593,0.8077,0.8117,0.8139,0.8194,0.8223,0.8265,0.8287,0.8317,0.8347,0.8399,0.8433,0.8459,0.8498,0.8543,0.8581,0.8592,0.8606,0.8604,0.8617,0.8607,0.8608,0.8608,0.86,0.8607,0.8607,0.8624,0.8624,0.8624]},{"header":{"parameterUnit":"m.s-1","parameterCategory":1,"la1":30.2991,"la2":30.254,"lo1":-89.0895,"lo2":-89.0444,"dy":0.0017,"dx":0.0017,"nx":28,"ny":28,"refTime":"2024-08-10T21:00:00:Z","depth":0,"parameterNumber":3,"parameterNumberName":"V-component_of_WINDS"},"data":[0,0,0,0,0,0,0,0,0,0,0,0,0,0,0,0,0,0,0,0,0,0,0,0,0,0,0,0,0,0,0,0,0,0,0,0,0,0,0,0,0,0,0,0,0,0,0,0,0,0,0,0,0,0,0,0,0,0,3.6868,3.6867,0,3.6817,3.6817,3.6816,3.6763,3.6763,3.6762,3.6761,3.6706,3.6706,3.6705,0,0,0,0,0,0,0,0,0,0,0,0,0,3.6917,3.6917,3.6868,3.6867,3.6867,3.6817,3.6817,3.6816,3.6763,3.6763,3.6762,3.6761,3.6707,3.6706,3.6705,0,0,0,0,0,0,0,0,0,0,0,0,0,3.6884,3.6917,3.6868,3.6835,3.6831,3.6817,3.6817,3.6816,3.6764,3.6763,3.6761,3.676,3.6707,3.6706,3.6705,3.6719,0,0,3.6701,3.67,0,0,0,0,0,0,0,0,3.6886,3.6882,3.684,3.6837,3.6833,3.6796,3.6814,3.6783,3.6764,3.6789,3.6761,3.676,3.6737,3.6733,3.6726,3.6716,3.6714,3.6701,3.67,3.67,3.6699,0,0,0,0,0,0,0,3.6889,3.6884,3.6848,3.684,3.6835,3.6821,3.6816,3.6808,3.6769,3.6787,3.6783,3.6778,3.6734,3.6727,3.6724,3.6713,3.6701,3.67,3.6699,3.6699,3.6711,3.6712,0,0,0,0,0,0,3.6896,3.6887,3.6849,3.6846,3.6858,3.6822,3.6815,3.6809,3.6769,3.6763,3.6779,3.6776,3.673,3.6725,3.6722,3.6735,3.67,3.6699,3.6698,3.671,3.6712,3.6713,0,0,0,0,0,0,3.6898,3.6893,3.6851,3.6865,3.6859,3.6822,3.6815,3.6808,3.6801,3.6763,3.6756,3.6778,3.6729,3.6724,3.672,3.6732,3.6698,3.6697,3.6709,3.6711,3.6712,3.6762,0,0,0,0,0,0,3.6899,3.6894,3.69,3.6866,3.6858,3.6851,3.6816,3.6808,3.6799,3.6794,3.6761,3.6754,3.6727,3.6722,3.6719,3.673,3.6696,3.6708,3.671,3.6712,3.6759,3.6765,3.677,0,0,0,0,0,3.6901,3.6915,3.69,3.6896,3.6865,3.6852,3.6848,3.6817,3.68,3.6805,3.6781,3.6755,3.6732,3.6722,3.6718,3.6729,3.6707,3.6709,3.6712,3.6756,3.6764,3.677,0,0,0,0,0,0,3.695,3.691,3.6893,3.6897,3.6879,3.6843,3.6848,3.6826,3.6811,3.6807,3.6769,3.6762,3.6762,3.6745,3.6735,3.674,3.6716,3.6717,3.6751,3.6758,3.6763,3.6766,3.6695,0,0,0,0,0,3.6962,3.6956,3.6921,3.6927,3.6919,3.6886,3.6879,3.6857,3.6836,3.6828,3.6803,3.6783,3.6771,3.6764,3.6751,3.6757,3.6748,3.6762,3.6768,3.6773,3.6774,3.6775,3.6781,3.6721,3.6721,3.6721,0,0,3.6985,3.6963,3.6961,3.6937,3.692,3.6913,3.6879,3.6874,3.6868,3.6826,3.6821,3.6803,3.6778,3.6779,3.6778,3.6765,3.6789,3.6776,3.678,3.6778,3.6778,3.6784,3.6789,3.6722,3.6722,3.6722,0,0,3.7024,3.7007,3.701,3.6994,3.6969,3.6947,3.6948,3.6916,3.6903,3.6898,3.6866,3.6858,3.6839,3.6822,3.6811,3.6844,3.6819,3.6841,3.6869,3.6871,3.6875,3.6879,3.689,3.6894,3.6843,3.6843,3.6843,0,3.7055,3.7045,3.7014,3.7011,3.7001,3.6964,3.6967,3.6952,3.6924,3.6918,3.6904,3.6878,3.6859,3.6855,3.6863,3.6856,3.6854,3.6844,3.6877,3.6881,3.6884,3.6894,3.6898,3.6845,3.6845,3.6845,3.6845,0,3.7085,3.7078,3.7084,3.7059,3.7049,3.7049,3.7017,3.7012,3.6991,3.697,3.6965,3.694,3.6921,3.6919,3.6898,3.6912,3.6904,3.6885,3.6859,3.6893,3.6901,3.6905,3.6849,3.6848,3.6848,3.6847,0,0,3.7151,3.711,3.7112,3.71,3.7071,3.7064,3.7063,3.7045,3.704,3.7022,3.7019,3.7003,3.6985,3.6972,3.695,3.6951,3.6978,3.6931,3.6929,3.6939,3.699,3.7004,3.7009,3.6962,3.6962,3.6963,3.6991,0,3.7184,3.7178,3.7151,3.7153,3.7146,3.7111,3.7109,3.709,3.7071,3.7062,3.704,3.7029,3.7006,3.6998,3.6998,3.6974,3.6987,3.6972,3.6956,3.6956,3.6962,3.7013,3.7028,3.7056,3.6994,3.6995,3.6995,0,3.722,3.7205,3.7207,3.7178,3.7174,3.7173,3.7154,3.7146,3.7124,3.711,3.7097,3.7072,3.7066,3.7044,3.7035,3.7026,3.7018,3.7005,3.7006,3.7002,3.6977,3.7009,3.7064,3.7068,3.7,3.7,3.7,0,3.7266,3.7248,3.7246,3.7237,3.7203,3.7203,3.7188,3.7165,3.7157,3.714,3.7134,3.7117,3.7108,3.7095,3.7066,3.7052,3.706,3.7035,3.7047,3.7048,3.7049,3.7049,3.7102,3.7046,3.7046,3.7046,3.7046,0,3.7304,3.7306,3.7266,3.7265,3.7266,3.7235,3.7237,3.7219,3.7199,3.7193,3.7162,3.7157,3.712,3.711,3.7087,3.7083,3.7079,3.7067,3.706,3.7069,3.707,3.7062,3.7058,3.7047,3.7047,3.7047,3.7047,0,3.7355,3.7329,3.7325,3.7294,3.7286,3.7288,3.7261,3.7258,3.7237,3.723,3.7227,3.7194,3.7181,3.7151,3.713,3.7115,3.7116,3.7105,3.7124,3.7119,3.7132,3.7131,3.718,3.7185,3.7128,3.7129,3.7129,0,3.738,3.7381,3.7351,3.7345,3.7332,3.7324,3.7315,3.7284,3.7276,3.7251,3.7251,3.7236,3.7223,3.7204,3.7177,3.7161,3.7148,3.7167,3.7145,3.7154,3.7147,3.7147,3.7146,3.7171,3.7172,3.7173,3.7173,0,3.7427,3.7414,3.7403,3.7388,3.7379,3.7365,3.7349,3.7346,3.7311,3.7304,3.7291,3.728,3.7259,3.7244,3.7224,3.7208,3.7184,3.718,3.7182,3.719,3.72,3.7193,3.7135,3.7179,3.7178,3.7178,3.7178,3.7177,3.7465,3.7464,3.7442,3.7431,3.7416,3.7403,3.7399,3.7378,3.7367,3.7348,3.7331,3.732,3.7297,3.7268,3.7254,3.7243,3.7231,3.7234,3.7234,3.7235,3.7238,3.7203,3.724,3.724,3.7239,3.7239,3.7239,0,3.7509,3.7493,3.7484,3.7463,3.7454,3.7435,3.7417,3.741,3.7401,3.7383,3.737,3.7355,3.7341,3.7314,3.7297,3.7294,3.7283,3.7291,3.729,3.7286,3.7251,3.725,3.73,3.73,3.73,3.73,3.73,3.73,3.753,3.7528,3.7512,3.7502,3.7486,3.7476,3.7467,3.7454,3.7439,3.7425,3.7413,3.7396,3.7374,3.7355,3.7341,3.7333,3.7328,3.7339,3.7328,3.7294,3.7289,3.7283,3.7283,3.7338,3.7338,3.7364,3.7364,3.7364]}]]